Tracking 19817 objects as of 17-Aug-2019
HD Live streaming from Space Station
objects crossing your sky now

FENGYUN 1C DEB

Track FENGYUN 1C DEB now!
10-day predictions


NORAD ID: 37415
Int'l Code: 1999-025EGH
Perigee: 862.8 km
Apogee: 1,293.2 km
Inclination: 99.0 °
Period: 106.6 minutes
Semi major axis: 7448 km
RCS: 0.0105 m2 (small)
Launch date: May 10, 1999
Source: People's Republic of China (PRC)
Launch site: Taiyaun Space Center, China (TSC)

Note: This is SATELLITE DEBRIS
aabbcc
Your satellite tracking list
Your tracking list is empty




NASA's NSSDC Master Catalog

Two Line Element Set (TLE):
1 37415U 99025EGH 19226.67606070 -.00000067  00000-0 -32032-4 0  9996
2 37415  98.9557 171.9833 0288913 320.1746  37.8502 13.50379451597173
Source of the keplerian elements: AFSPC